Weather History for KIJX - June, 2013

Change the Weather History Date:

Sunday, June 30, 2013

  Actual Average (KSPI) Record (KSPI)
Temperature  
Mean Temperature 68 °F 76 °F  
Max Temperature 76 °F 86 °F 102 °F (1931)
Min Temperature 61 °F 65 °F 52 °F (2004)
Degree Days  
Heating Degree Days 0 0  
Month to date heating degree days 11  
Since 1 June heating degree days 15  
Since 1 July heating degree days 5485  
Cooling Degree Days 3 11  
Month to date cooling degree days 240  
Year to date cooling degree days 344  
Since 1 June cooling degree days 240  
Growing Degree Days 18 (Base 50)    
Moisture  
Dew Point 61 °F    
Average Humidity 79    
Maximum Humidity 93    
Minimum Humidity 60    
Precipitation  
Precipitation 0.00 in 0.13 in 1.67 in (1934)
Month to date precipitation 4.46  
Year to date precipitation 18.47  
Snow  
Snow 0.00 in 0.00 in 0.00 in ()
Month to date snowfall 0.0  
Since 1 June snowfall 0.0  
Since 1 July snowfall 20.9  
Snow Depth -    
Sea Level Pressure  
Sea Level Pressure 29.88 in    
Wind  
Wind Speed 8 mph (North)    
Max Wind Speed 20 mph    
Max Gust Speed 24 mph    
Visibility 10 miles    
Events Rain    
T = Trace of Precipitation, MM = Missing Value Source: NWS Daily Summary

Daily Weather History Graph

Daily Weather History Graph

Search for Another Location

Airport or City:

Trip Planner

Search our weather history database for the weather conditions in past years. The results will help you decide how hot, cold, wet, or windy it might be!

Date:

Astronomy

Jun. 30, 2013 Rise Set
Actual Time 5:36 AM CDT 8:33 PM CDT
Civil Twilight 5:03 AM CDT 9:05 PM CDT
Nautical Twilight 4:22 AM CDT 9:46 PM CDT
Astronomical Twilight 3:34 AM CDT 10:34 PM CDT
Moon 12:34 AM CDT (6/30) 1:48 PM CDT (6/30)
Length of Visible Light 16h 01m
Length of Day
14h 56m
Last Quarter, 45% of the Moon is Illuminated
Jun 30
Last Quarter
Jul 8
New
Jul 15
First Quarter
Jul 22
Full
Jul 29
Last Quarter

Hourly Weather History & Observations

Time (CDT) Temp. Dew Point Humidity Pressure Visibility Wind Dir Wind Speed Gust Speed Precip Events Conditions
12:15 AM 65.7 °F 62.6 °F 90% 29.78 in 10.0 mi North 6.9 mph - N/A   Overcast
12:35 AM 65.5 °F 62.6 °F 90% 29.79 in 10.0 mi North 5.8 mph - N/A   Mostly Cloudy
12:55 AM 65.3 °F 62.6 °F 91% 29.79 in 10.0 mi North 8.1 mph - N/A   Mostly Cloudy
1:15 AM 65.3 °F 62.1 °F 89% 29.79 in 10.0 mi North 6.9 mph - N/A   Overcast
1:35 AM 65.3 °F 61.7 °F 88% 29.79 in 10.0 mi North 6.9 mph - N/A   Overcast
1:55 AM 65.1 °F 60.8 °F 86% 29.79 in 10.0 mi NNW 6.9 mph - N/A   Overcast
2:15 AM 64.9 °F 62.2 °F 91% 29.79 in 10.0 mi NNW 5.8 mph - N/A   Overcast
2:35 AM 65.3 °F 62.8 °F 92% 29.80 in 10.0 mi North 6.9 mph - N/A   Overcast
2:55 AM 64.6 °F 61.3 °F 89% 29.80 in 10.0 mi North 8.1 mph - N/A   Mostly Cloudy
3:15 AM 63.9 °F 59.9 °F 87% 29.80 in 10.0 mi North 9.2 mph - N/A   Scattered Clouds
3:35 AM 63.1 °F 59.2 °F 87% 29.80 in 10.0 mi North 6.9 mph - N/A   Clear
3:55 AM 62.6 °F 59.2 °F 89% 29.81 in 10.0 mi NNW 5.8 mph - N/A   Scattered Clouds
4:15 AM 62.2 °F 59.0 °F 89% 29.81 in 10.0 mi NNW 5.8 mph - N/A   Clear
4:35 AM 62.2 °F 59.2 °F 90% 29.82 in 10.0 mi NW 6.9 mph - N/A   Clear
4:55 AM 62.1 °F 59.4 °F 91% 29.82 in 10.0 mi NNW 9.2 mph - N/A   Clear
5:15 AM 62.1 °F 59.4 °F 91% 29.82 in 10.0 mi NNW 9.2 mph - N/A   Clear
5:35 AM 61.9 °F 59.2 °F 91% 29.83 in 10.0 mi NNW 6.9 mph - N/A   Clear
5:55 AM 61.7 °F 59.4 °F 92% 29.83 in 10.0 mi NW 6.9 mph - N/A   Clear
6:15 AM 61.9 °F 59.9 °F 93% 29.84 in 10.0 mi NW 8.1 mph - N/A   Clear
6:35 AM 62.6 °F 60.3 °F 92% 29.85 in 10.0 mi NNW 8.1 mph - N/A   Clear
6:55 AM 63.5 °F 60.4 °F 90% 29.85 in 10.0 mi NNW 9.2 mph - N/A   Clear
7:15 AM 64.2 °F 60.4 °F 87% 29.85 in 10.0 mi North 9.2 mph 16.1 mph N/A   Clear
7:35 AM 64.8 °F 60.1 °F 85% 29.85 in 10.0 mi North 15.0 mph - N/A   Clear
7:55 AM 65.3 °F 60.4 °F 84% 29.86 in 10.0 mi North 12.7 mph 17.3 mph N/A   Clear
8:15 AM 65.8 °F 60.4 °F 83% 29.87 in 10.0 mi North 8.1 mph - N/A   Scattered Clouds
8:35 AM 67.1 °F 60.4 °F 79% 29.87 in 10.0 mi North 11.5 mph - N/A   Scattered Clouds
8:55 AM 67.8 °F 60.8 °F 78% 29.87 in 10.0 mi North 10.4 mph - N/A   Clear
9:15 AM 68.7 °F 61.2 °F 77% 29.87 in 10.0 mi North 8.1 mph - N/A   Clear
9:35 AM 68.9 °F 61.0 °F 76% 29.88 in 10.0 mi North 10.4 mph - N/A   Scattered Clouds
9:55 AM 68.7 °F 60.8 °F 76% 29.88 in 10.0 mi North 10.4 mph 16.1 mph N/A   Mostly Cloudy
10:15 AM 68.4 °F 60.4 °F 76% 29.88 in 10.0 mi North 9.2 mph - N/A   Scattered Clouds
10:35 AM 68.5 °F 60.4 °F 75% 29.89 in 10.0 mi North 12.7 mph - N/A   Scattered Clouds
10:55 AM 68.5 °F 60.3 °F 75% 29.89 in 10.0 mi North 10.4 mph - N/A   Scattered Clouds
11:15 AM 70.5 °F 61.7 °F 74% 29.90 in 10.0 mi North 9.2 mph - N/A   Scattered Clouds
11:35 AM 70.5 °F 61.0 °F 72% 29.89 in 10.0 mi North 10.4 mph - N/A   Scattered Clouds
11:55 AM 72.1 °F 60.8 °F 67% 29.89 in 10.0 mi North 10.4 mph 17.3 mph N/A   Scattered Clouds
12:15 PM 72.1 °F 61.5 °F 69% 29.89 in 10.0 mi North 10.4 mph - N/A   Scattered Clouds
12:35 PM 73.8 °F 61.3 °F 65% 29.89 in 10.0 mi North 13.8 mph 20.7 mph N/A   Scattered Clouds
12:55 PM 75.2 °F 60.8 °F 61% 29.89 in 10.0 mi North 17.3 mph 20.7 mph N/A   Scattered Clouds
1:15 PM 73.8 °F 59.2 °F 60% 29.89 in 10.0 mi North 12.7 mph 20.7 mph N/A   Scattered Clouds
1:35 PM 74.5 °F 60.4 °F 61% 29.89 in 10.0 mi North 13.8 mph 20.7 mph N/A   Scattered Clouds
1:55 PM 75.0 °F 60.8 °F 61% 29.89 in 10.0 mi North 12.7 mph - N/A   Scattered Clouds
2:15 PM 74.7 °F 61.3 °F 63% 29.89 in 10.0 mi North 15.0 mph 20.7 mph N/A   Scattered Clouds
2:35 PM 73.4 °F 61.0 °F 65% 29.89 in 10.0 mi NE 15.0 mph 20.7 mph N/A   Mostly Cloudy
2:55 PM 73.0 °F 61.0 °F 66% 29.90 in 10.0 mi NNE 10.4 mph 16.1 mph N/A   Scattered Clouds
3:15 PM 74.8 °F 62.1 °F 64% 29.89 in 10.0 mi NNE 9.2 mph - N/A   Clear
3:35 PM 75.9 °F 61.5 °F 61% 29.89 in 10.0 mi North 11.5 mph 23.0 mph N/A   Scattered Clouds
3:55 PM 69.1 °F 61.5 °F 77% 29.91 in 10.0 mi NE 19.6 mph 24.2 mph N/A Rain Light Rain
4:15 PM 66.2 °F 63.0 °F 89% 29.91 in 5.0 mi NE 4.6 mph - N/A Rain Rain
4:35 PM 66.6 °F 63.1 °F 89% 29.91 in 10.0 mi Calm Calm - N/A Rain Light Rain
4:55 PM 68.9 °F 63.5 °F 83% 29.91 in 10.0 mi Calm Calm - N/A   Scattered Clouds
5:15 PM 70.2 °F 63.1 °F 78% 29.91 in 10.0 mi Calm Calm - N/A   Clear
5:35 PM 71.1 °F 64.4 °F 79% 29.90 in 10.0 mi Calm Calm - N/A   Clear
5:55 PM 72.7 °F 65.7 °F 79% 29.90 in 10.0 mi North 4.6 mph - N/A   Clear
6:15 PM 74.8 °F 63.5 °F 68% 29.91 in 10.0 mi NNE 10.4 mph - N/A   Clear
6:35 PM 75.2 °F 62.2 °F 64% 29.91 in 10.0 mi North 8.1 mph - N/A   Clear
6:55 PM 75.2 °F 62.6 °F 65% 29.91 in 10.0 mi NNE 5.8 mph - N/A   Clear
7:15 PM 74.3 °F 60.4 °F 62% 29.92 in 10.0 mi NE 12.7 mph 16.1 mph N/A   Clear
7:35 PM 71.2 °F 59.9 °F 67% 29.92 in 10.0 mi North 11.5 mph - N/A   Clear
7:55 PM 69.3 °F 60.4 °F 73% 29.92 in 10.0 mi North 9.2 mph - N/A   Clear
8:15 PM 68.9 °F 60.4 °F 74% 29.92 in 10.0 mi North 9.2 mph - N/A   Clear
8:35 PM 68.0 °F 61.0 °F 78% 29.93 in 10.0 mi NNW 9.2 mph - N/A   Clear
8:55 PM 67.6 °F 61.5 °F 81% 29.93 in 10.0 mi North 6.9 mph - N/A   Scattered Clouds
9:15 PM 67.6 °F 61.7 °F 81% 29.94 in 10.0 mi NNW 6.9 mph - N/A   Overcast
9:35 PM 66.9 °F 61.7 °F 83% 29.95 in 10.0 mi North 5.8 mph - N/A   Mostly Cloudy
9:55 PM 66.7 °F 61.7 °F 84% 29.95 in 10.0 mi North 6.9 mph - N/A   Mostly Cloudy
10:15 PM 66.7 °F 61.3 °F 83% 29.96 in 10.0 mi North 6.9 mph - N/A   Scattered Clouds
10:35 PM 66.6 °F 60.8 °F 82% 29.96 in 10.0 mi North 8.1 mph - N/A   Scattered Clouds
10:55 PM 66.7 °F 59.2 °F 77% 29.97 in 10.0 mi NNE 9.2 mph - N/A   Clear
11:15 PM 66.9 °F 57.2 °F 71% 29.97 in 10.0 mi NNE 8.1 mph - N/A   Clear
11:35 PM 66.2 °F 55.9 °F 69% 29.97 in 10.0 mi North 9.2 mph - N/A   Clear
11:55 PM 64.6 °F 56.1 °F 74% 29.98 in 10.0 mi North 6.9 mph - N/A   Clear